DMSP 5D-2 F13 DEB, 40608

Orbit data source: Space-Track

DMSP 5D-2 F13 DEB, 40608 is space debris in SSO originally from a launch on Fri, 24 Mar 1995 UTC launched from the Air Force Western Test Range (AFWTR). Debris objects in space refer to the collection of defunct objects orbiting the Earth. Examples of debris include non-operational satellites, rocket bodies, and fragments generated from explosions, collisions, or faulty payload assembly.

Loading next visibility...
Identifier
40608, 1995-015FF
Orbit
SSO
Country
Flag of USUS
Related business
Manufacturer
Unknown
Mission
Spacecraft
Bus & Motor
Unknown
Mass
Unknown
Launch date (UTC)
1995-03-24 (31 years ago)
Launch vehicle
Unknown
Launch site
Air Force Western Test Range (AFWTR)
Object type
Payload
Rocket body
Debris
Shape & HBR
Unknown shape, 0.1 m
Radar Cross Section
Small (<0.1 m²)

Expand to show TLE details & history
Last TLE update: 3 days ago

TLE from 3 days ago
0 DMSP 5D-2 F13 DEB
1 40608U 95015FF  25346.99369448  .00000675  00000-0  30443-3 0  9995
2 40608  98.6247   1.7586 0032482 120.9751 239.4627 14.25136090552845
Epoch: 2025-12-12T23:50Z
TLE epoch observation values (Epoch: 2025-12-12T23:50:55.203Z)
Latitude
0.00003°
Longitude
-77.89876°
Altitude
822.878 km
Speed
7.435 km/s
True Right ascension
00h 07m 02s
True Declination
0° 00' 00"
Sunlit
Object was in daylight at epoch
Visualization orbit readout
Latitude
Unknown
Longitude
Unknown
Altitude
Unknown
Speed
Unknown
Apparent Right ascension
Unknown
Apparent Declination
Unknown
Sunlit
N/A
Visualization observer readout
Local Sidereal Time
00:23:58
Azimuth
Unknown
Elevation
Unknown
Doppler factor
Unknown
Orbital elements
Apogee altitude
828.516 km
Perigee altitude
781.85 km
Semi-major axis
7,183.32 km
Eccentricity
0.00325
Inclination
98.6247°
RAAN
1.7586°
Arg. of periapsis
120.9751°
True anomaly
239.14277°
Mean anomaly
239.4627°
Eccentric anomaly
239.30267°
Mean motion
3.56497 °/min
Orbital period
100.98 mins
BSTAR
0.00030443
Loading maneuver chart data...
Computing Atmospheric mass density...

Documentation

Showing up to 5 results
|